[[[{"header":{"parameterUnit":"kt","parameterCategory":2,"dx":1,"dy":1,"la1":30.253999710083008,"la2":30.299108505249023,"lo1":-89.0895004272461,"lo2":-89.04439544677734,"nx":28,"ny":28,"refTime":"2022-10-04T21:00:00:Z","depth":0,"parameterNumber":1,"parameterNumberName":"U-component_of_WINDS"},"data":[-3.2353,-3.243,-3.2415,-3.2497,-3.2497,-3.255,-3.2564,-3.2581,-3.259,-3.2651,-3.2684,-3.2676,-3.2678,-3.2714,-3.2748,-3.2743,-3.276,-3.28,-3.2788,-3.2624,-3.2601,-3.2578,-3.2559,-3.2803,-3.2804,-3.2961,-3.2962,-3.2964,-3.2238,-3.2239,-3.2277,-3.2304,-3.2336,-3.229,-3.2306,-3.2337,-3.2385,-3.2397,-3.2427,-3.248,-3.2519,-3.2507,-3.2542,-3.2578,-3.2558,-3.2589,-3.2587,-3.2589,-3.2412,-3.2393,-3.2605,-3.2605,-3.2605,-3.2605,-3.2605,-3.2605,-3.2026,-3.2072,-3.2079,-3.212,-3.2128,-3.2146,-3.2187,-3.2176,-3.2212,-3.2246,-3.2219,-3.2273,-3.2281,-3.2313,-3.232,-3.2362,-3.2325,-3.2353,-3.2361,-3.237,-3.2382,-3.2162,-3.2367,-3.2366,-3.2365,-3.2365,-3.2364,0,-3.1866,-3.185,-3.1884,-3.1914,-3.1943,-3.1964,-3.1981,-3.2006,-3.1964,-3.1996,-3.204,-3.2063,-3.2108,-3.2148,-3.2176,-3.2176,-3.213,-3.2123,-3.2143,-3.2159,-3.217,-3.2168,-3.1884,-3.2117,-3.2115,-3.2113,-3.2112,-3.2111,-3.1652,-3.1707,-3.1705,-3.1731,-3.1736,-3.1778,-3.1801,-3.1759,-3.1784,-3.1798,-3.1841,-3.188,-3.1909,-3.1982,-3.1966,-3.2,-3.1978,-3.2069,-3.1982,-3.1996,-3.1982,-3.1981,-3.1987,-3.2088,-3.2091,-3.2093,-3.2095,0,-3.1534,-3.1506,-3.1585,-3.1576,-3.1576,-3.1636,-3.1628,-3.1672,-3.1654,-3.1712,-3.1723,-3.1696,-3.174,-3.1709,-3.1751,-3.1734,-3.1835,-3.1811,-3.1833,-3.1827,-3.1908,-3.1902,-3.217,-3.2204,-3.1948,-3.195,-3.1952,0,-3.1342,-3.1415,-3.1369,-3.1416,-3.1496,-3.1451,-3.1532,-3.1524,-3.1528,-3.1574,-3.1515,-3.1559,-3.1511,-3.1551,-3.1525,-3.1601,-3.1608,-3.16,-3.1592,-3.1606,-3.1608,-3.162,-3.1609,-3.157,-3.1568,-3.1567,-3.1566,0,-3.1162,-3.122,-3.1297,-3.1306,-3.1302,-3.1339,-3.1339,-3.1342,-3.1364,-3.1386,-3.14,-3.1429,-3.1446,-3.1469,-3.1436,-3.1379,-3.1527,-3.1441,-3.1519,-3.152,-3.1555,-3.1554,-3.1797,-3.1565,-3.1564,-3.1564,-3.1563,0,-3.1002,-3.1025,-3.1139,-3.1135,-3.1152,-3.1201,-3.1227,-3.1262,-3.1269,-3.1256,-3.1273,-3.123,-3.1291,-3.1209,-3.1294,-3.1229,-3.1249,-3.1246,-3.1251,-3.1256,-3.1165,-3.1309,-3.1543,-3.1567,-3.1259,-3.1257,-3.1254,0,-3.0804,-3.091,-3.0872,-3.0981,-3.1025,-3.0957,-3.1011,-3.1018,-3.1004,-3.104,-3.1024,-3.1066,-3.0997,-3.1005,-3.1051,-3.1037,-3.1122,-3.1024,-3.108,-3.1082,-3.1083,-3.1296,-3.134,-3.1495,-3.1221,-3.1225,-3.1227,0,-3.0647,-3.0641,-3.0663,-3.0671,-3.0672,-3.0709,-3.077,-3.0801,-3.0827,-3.084,-3.0892,-3.0947,-3.0899,-3.0912,-3.088,-3.0929,-3.1063,-3.087,-3.0869,-3.0908,-3.1201,-3.1243,-3.1269,-3.103,-3.1034,-3.1037,-3.1201,0,-3.0417,-3.0465,-3.0522,-3.054,-3.0562,-3.0627,-3.0592,-3.062,-3.0586,-3.057,-3.0644,-3.0639,-3.067,-3.0689,-3.0656,-3.0779,-3.0754,-3.07,-3.0619,-3.0758,-3.0812,-3.0833,-3.0543,-3.054,-3.0538,-3.0536,0,0,-3.0237,-3.0304,-3.0258,-3.0315,-3.0331,-3.0258,-3.033,-3.0337,-3.0353,-3.0366,-3.032,-3.0398,-3.0396,-3.049,-3.053,-3.0541,-3.0561,-3.0513,-3.0692,-3.0709,-3.0725,-3.0783,-3.0806,-3.0532,-3.0531,-3.053,-3.053,0,-3.0145,-3.0144,-3.0215,-3.0221,-3.0226,-3.0204,-3.0221,-3.0213,-3.0206,-3.0276,-3.0215,-3.0254,-3.0316,-3.0324,-3.0336,-3.05,-3.0452,-3.0512,-3.0613,-3.067,-3.0691,-3.0709,-3.077,-3.0792,-3.0524,-3.0525,-3.0525,0,-2.9986,-2.998,-3.001,-3.0041,-3.0043,-3.009,-2.9995,-3.0047,-3.0081,-2.9997,-3.0068,-3.0061,-3.0067,-3.0159,-3.0198,-3.0157,-3.0356,-3.0285,-3.0298,-3.0302,-3.0355,-3.038,-3.0402,-3.0114,-3.0112,-3.0111,0,0,-2.9911,-2.9954,-2.9934,-3.0018,-3.0024,-2.9992,-3.0012,-2.998,-2.9986,-2.9989,-2.9979,-2.9987,-3.0023,-3.0047,-3.0079,-3.0184,-3.0182,-3.0236,-3.0255,-3.0271,-3.0284,-3.0342,-3.0366,-3.0106,-3.0106,-3.0106,0,0,-2.9876,-2.9855,-2.9819,-2.9913,-2.9921,-2.9906,-2.996,-2.9915,-2.994,-2.9928,-2.9876,-2.9876,-2.996,-2.9955,-2.9895,-3.0049,-2.9969,-2.9982,-3.0049,-3.0073,-3.0092,-3.0093,-2.9798,0,0,0,0,0,-2.9763,-2.9857,-2.9825,-2.9835,-2.9873,-2.9924,-2.9929,-2.9888,-2.9832,-2.9876,-2.986,-2.9806,-2.9913,-2.9858,-2.9869,-2.9937,-3.0044,-3.0055,-3.0066,-3.0177,-3.0202,-3.0224,0,0,0,0,0,0,-2.9767,-2.9779,-2.9823,-2.9812,-2.982,-2.992,-2.9817,-2.9809,-2.9826,-2.9815,-2.981,-2.9805,-2.9771,-2.9849,-2.986,-2.9926,-2.9794,-3.0049,-3.0058,-3.0066,-3.0185,-3.0206,-3.0224,0,0,0,0,0,-2.9769,-2.9779,-2.9851,-2.981,-2.9818,-2.9786,-2.9813,-2.9805,-2.9818,-2.9793,-2.9787,-2.9786,-2.9774,-2.978,-2.9856,-2.9922,-2.9786,-2.979,-3.0055,-3.0062,-3.0069,-3.0196,0,0,0,0,0,0,-2.9771,-2.9773,-2.9852,-2.9852,-2.9771,-2.9779,-2.9779,-2.9803,-2.9794,-2.9789,-2.9766,-2.9757,-2.9778,-2.9782,-2.9787,-2.9923,-2.978,-2.9784,-2.9787,-3.006,-3.0066,-3.0071,0,0,0,0,0,0,-2.9767,-2.9774,-2.9852,-2.9805,-2.98,-2.9774,-2.9774,-2.9831,-2.9795,-2.9767,-2.9759,-2.9762,-2.977,-2.9783,-2.9787,-2.9878,-2.9775,-2.9779,-2.9782,-2.9784,-3.0065,-3.0069,0,0,0,0,0,0,-2.9769,-2.9775,-2.9804,-2.9801,-2.9796,-2.98,-2.9823,-2.9865,-2.9755,-2.9769,-2.9744,-2.9739,-2.9773,-2.9776,-2.9787,-2.9877,-2.9877,-2.9776,-2.9778,-2.978,-2.9781,0,0,0,0,0,0,0,-2.9771,-2.9741,-2.9848,-2.9797,-2.9792,-2.9858,-2.9858,-2.9859,-2.9754,-2.975,-2.9745,-2.9741,-2.9753,-2.9757,-2.9761,-2.9877,0,0,-2.9775,-2.9777,0,0,0,0,0,0,0,0,-2.9738,-2.974,-2.9848,-2.9848,-2.9848,-2.9858,-2.9858,-2.9859,-2.9753,-2.975,-2.9746,-2.9743,-2.9754,-2.9757,-2.9761,0,0,0,0,0,0,0,0,0,0,0,0,0,0,0,-2.9848,-2.9848,0,-2.9858,-2.9858,-2.9858,-2.9753,-2.975,-2.9747,-2.9744,-2.9755,-2.9758,-2.9761,0,0,0,0,0,0,0,0,0,0,0,0,0,0,0,0,0,0,0,0,0,0,0,0,0,0,0,0,0,0,0,0,0,0,0,0,0,0,0,0,0,0,0,0,0,0,0,0,0,0,0,0,0,0,0,0,0,0,0,0,0,0,0,0,0,0,0,0,0]}],[{"header":{"parameterUnit":"kt","parameterCategory":2,"dx":1,"dy":1,"la1":30.253999710083008,"la2":30.299108505249023,"lo1":-89.0895004272461,"lo2":-89.04439544677734,"nx":28,"ny":28,"refTime":"2022-10-04T21:00:00:Z","depth":0,"parameterNumber":2,"parameterNumberName":"V-component_of_WINDS"},"data":[-2.9495,-2.9562,-2.9567,-2.9646,-2.9662,-2.9717,-2.9737,-2.9764,-2.9786,-2.9851,-2.9889,-2.9899,-2.9922,-2.9967,-3.0007,-3.0011,-3.0028,-3.005,-3.005,-2.9949,-2.9935,-2.9921,-2.9906,-3.0054,-3.0054,-3.0155,-3.0156,-3.0156,-2.9423,-2.9441,-2.9483,-2.9527,-2.9564,-2.9545,-2.9578,-2.961,-2.9659,-2.9686,-2.9723,-2.978,-2.9824,-2.9839,-2.9883,-2.9914,-2.9907,-2.9926,-2.9923,-2.9927,-2.9819,-2.9803,-2.9931,-2.9931,-2.9931,-2.993,-2.993,-2.993,-2.9294,-2.9334,-2.9362,-2.9408,-2.9431,-2.946,-2.9499,-2.951,-2.9551,-2.9597,-2.9592,-2.9647,-2.9674,-2.9726,-2.9744,-2.9787,-2.9766,-2.9787,-2.9792,-2.9798,-2.9804,-2.966,-2.9794,-2.9793,-2.9793,-2.9793,-2.9792,0,-2.92,-2.92,-2.9241,-2.9283,-2.9316,-2.9349,-2.9378,-2.9402,-2.9402,-2.9436,-2.9485,-2.9513,-2.9569,-2.9614,-2.9655,-2.9669,-2.9651,-2.9649,-2.9664,-2.9668,-2.9667,-2.9669,-2.9494,-2.9645,-2.9644,-2.9643,-2.9642,-2.9642,-2.907,-2.9116,-2.9146,-2.9174,-2.9191,-2.9236,-2.9263,-2.9259,-2.9288,-2.9324,-2.9359,-2.9404,-2.9441,-2.9517,-2.9527,-2.9569,-2.956,-2.9618,-2.9566,-2.9569,-2.9562,-2.956,-2.9565,-2.9629,-2.963,-2.9632,-2.9633,0,-2.8997,-2.9002,-2.9073,-2.9098,-2.9105,-2.9153,-2.9174,-2.9213,-2.9219,-2.9273,-2.9286,-2.9294,-2.9341,-2.9342,-2.9395,-2.9394,-2.9473,-2.9464,-2.9465,-2.9463,-2.9516,-2.9512,-2.9685,-2.9708,-2.9554,-2.9556,-2.9557,0,-2.8888,-2.8948,-2.8951,-2.8992,-2.9058,-2.9052,-2.9118,-2.9129,-2.9151,-2.9194,-2.9174,-2.9215,-2.9209,-2.925,-2.9248,-2.9313,-2.9322,-2.9326,-2.9325,-2.9328,-2.9328,-2.9343,-2.9336,-2.9319,-2.9318,-2.9317,-2.9317,0,-2.8774,-2.8844,-2.8911,-2.8927,-2.8959,-2.899,-2.9004,-2.9029,-2.9055,-2.9088,-2.9105,-2.9145,-2.9166,-2.9197,-2.9195,-2.916,-2.9273,-2.9224,-2.9277,-2.9277,-2.9302,-2.93,-2.9454,-2.9315,-2.9315,-2.9315,-2.9315,0,-2.8686,-2.8721,-2.8816,-2.8842,-2.886,-2.8904,-2.8943,-2.898,-2.9007,-2.9009,-2.9035,-2.9021,-2.9077,-2.9029,-2.9105,-2.906,-2.9083,-2.9091,-2.9094,-2.91,-2.9046,-2.9133,-2.9278,-2.9294,-2.9105,-2.9103,-2.9101,0,-2.8554,-2.8651,-2.8646,-2.8737,-2.8781,-2.8757,-2.8805,-2.8829,-2.8835,-2.8874,-2.888,-2.8923,-2.8887,-2.8901,-2.8939,-2.8947,-2.9005,-2.8939,-2.8995,-2.8997,-2.899,-2.9123,-2.9145,-2.9247,-2.9079,-2.9081,-2.9083,0,-2.8453,-2.8489,-2.8506,-2.8524,-2.8555,-2.8592,-2.8646,-2.8688,-2.8714,-2.8742,-2.8788,-2.8848,-2.8824,-2.8846,-2.8839,-2.8878,-2.8966,-2.8846,-2.8847,-2.8869,-2.9067,-2.9088,-2.9105,-2.8952,-2.8955,-2.8957,-2.9065,0,-2.8321,-2.8369,-2.8413,-2.8453,-2.8482,-2.8537,-2.8538,-2.8567,-2.8558,-2.8563,-2.8629,-2.8647,-2.8689,-2.8707,-2.8697,-2.8787,-2.8772,-2.8745,-2.8698,-2.8785,-2.8821,-2.8835,-2.8645,-2.8644,-2.8642,-2.8641,0,0,-2.8195,-2.8263,-2.8255,-2.8307,-2.8331,-2.8303,-2.8363,-2.8382,-2.8421,-2.8438,-2.8412,-2.8499,-2.8515,-2.8595,-2.8623,-2.8639,-2.8655,-2.8624,-2.8743,-2.8755,-2.8765,-2.8804,-2.8819,-2.8639,-2.8639,-2.8638,-2.8638,0,-2.8147,-2.8164,-2.8223,-2.8242,-2.8271,-2.8273,-2.8287,-2.831,-2.8316,-2.8381,-2.8356,-2.8396,-2.8465,-2.8485,-2.8505,-2.8614,-2.8593,-2.8627,-2.8687,-2.8732,-2.8745,-2.8756,-2.8796,-2.8811,-2.8635,-2.8635,-2.8635,0,-2.8047,-2.8064,-2.8092,-2.8143,-2.8161,-2.8207,-2.8158,-2.8208,-2.8241,-2.8207,-2.8271,-2.8281,-2.8307,-2.8383,-2.8417,-2.8394,-2.8538,-2.8491,-2.8499,-2.8502,-2.8546,-2.8561,-2.8575,-2.8393,-2.8392,-2.8391,0,0,-2.8005,-2.8049,-2.8065,-2.8133,-2.8146,-2.8149,-2.8173,-2.8165,-2.819,-2.82,-2.8212,-2.8236,-2.8276,-2.8303,-2.834,-2.8423,-2.8428,-2.8461,-2.8473,-2.8482,-2.8491,-2.8537,-2.8552,-2.8388,-2.8388,-2.8388,0,0,-2.7985,-2.8007,-2.7993,-2.8071,-2.8095,-2.8115,-2.8156,-2.8139,-2.8172,-2.8166,-2.8154,-2.816,-2.8231,-2.8241,-2.8199,-2.8323,-2.8277,-2.8287,-2.8314,-2.8329,-2.834,-2.8336,-2.815,0,0,0,0,0,-2.7936,-2.8004,-2.7991,-2.8004,-2.8067,-2.8122,-2.813,-2.8123,-2.8091,-2.8124,-2.8131,-2.8106,-2.8216,-2.8179,-2.8192,-2.8238,-2.8347,-2.8355,-2.8361,-2.8416,-2.8432,-2.8444,0,0,0,0,0,0,-2.7941,-2.7957,-2.7989,-2.8012,-2.8026,-2.812,-2.8064,-2.8063,-2.8087,-2.8082,-2.8106,-2.8107,-2.8101,-2.8172,-2.8183,-2.8228,-2.8146,-2.835,-2.8356,-2.8362,-2.8422,-2.8434,-2.8445,0,0,0,0,0,-2.7945,-2.7957,-2.806,-2.8011,-2.8023,-2.803,-2.8061,-2.806,-2.8078,-2.8089,-2.809,-2.8071,-2.8103,-2.8112,-2.8179,-2.8223,-2.8138,-2.8143,-2.8354,-2.8359,-2.8363,-2.8428,0,0,0,0,0,0,-2.7948,-2.7957,-2.8063,-2.8066,-2.7984,-2.8024,-2.8031,-2.8058,-2.8084,-2.8086,-2.8053,-2.8049,-2.8105,-2.8112,-2.8119,-2.8222,-2.8132,-2.8136,-2.8139,-2.8358,-2.8362,-2.8365,0,0,0,0,0,0,-2.795,-2.796,-2.8064,-2.8031,-2.8031,-2.802,-2.8025,-2.808,-2.8085,-2.8047,-2.8043,-2.8051,-2.8094,-2.8112,-2.8117,-2.8203,-2.8127,-2.8131,-2.8134,-2.8136,-2.8361,-2.8364,0,0,0,0,0,0,-2.7954,-2.7963,-2.803,-2.803,-2.8029,-2.8067,-2.8068,-2.8132,-2.8057,-2.8046,-2.805,-2.8047,-2.8094,-2.81,-2.8116,-2.82,-2.8202,-2.8127,-2.813,-2.8132,-2.8133,0,0,0,0,0,0,0,-2.7958,-2.7901,-2.8042,-2.8029,-2.8028,-2.8098,-2.8099,-2.81,-2.8057,-2.8054,-2.8051,-2.8048,-2.8102,-2.8107,-2.8112,-2.8197,0,0,-2.8126,-2.8128,0,0,0,0,0,0,0,0,-2.7898,-2.7901,-2.8043,-2.8043,-2.8044,-2.8098,-2.8099,-2.81,-2.8056,-2.8054,-2.8052,-2.8049,-2.8104,-2.8107,-2.8111,0,0,0,0,0,0,0,0,0,0,0,0,0,0,0,-2.8043,-2.8043,0,-2.8098,-2.8099,-2.8099,-2.8056,-2.8054,-2.8052,-2.805,-2.8105,-2.8108,-2.8111,0,0,0,0,0,0,0,0,0,0,0,0,0,0,0,0,0,0,0,0,0,0,0,0,0,0,0,0,0,0,0,0,0,0,0,0,0,0,0,0,0,0,0,0,0,0,0,0,0,0,0,0,0,0,0,0,0,0,0,0,0,0,0,0,0,0,0,0,0]}]]]